Weather History for Three Rivers, MI

Change the Weather History Date:

Saturday, February 2, 2013

  Actual Average Record
Temperature  
Mean Temperature 15 °F -  
Max Temperature 24 °F 34 °F 54 °F (1968)
Min Temperature 7 °F 16 °F -14 °F (1951)
Degree Days  
Heating Degree Days 50    
Moisture  
Dew Point 12 °F    
Average Humidity 80    
Maximum Humidity 88    
Minimum Humidity 64    
Precipitation  
Precipitation 0.00 in - - ()
Sea Level Pressure  
Sea Level Pressure 30.03 in    
Wind  
Wind Speed 7 mph (WSW)    
Max Wind Speed 14 mph    
Max Gust Speed 17 mph    
Visibility 6 miles    
Events Snow    
Averages and records for this station are not official NWS values.
T = Trace of Precipitation, MM = Missing Value Source: NWS Daily Summary

Daily Weather History Graph

Daily Weather History Graph

Search for Another Location

Airport:

Trip Planner

Search our weather history database for the weather conditions in past years. The results will help you decide how hot, cold, wet, or windy it might be!

Date:

Astronomy

Feb. 02, 2013 Rise Set
Actual Time 7:53 AM EST 5:59 PM EST
Civil Twilight 7:24 AM EST 6:28 PM EST
Nautical Twilight 6:50 AM EST 7:01 PM EST
Astronomical Twilight 6:18 AM EST 7:34 PM EST
Moon 12:11 AM EST (2/2) 10:56 AM EST (2/2)
Length of Visible Light 11h 04m
Length of Day
10h 05m
Waning Gibbous, 60% of the Moon is Illuminated
Feb 2
Waning Gibbous
Feb 3
Last Quarter
Feb 10
New
Feb 17
First Quarter
Feb 25
Full

Hourly Weather History & Observations

Time (EST) Temp. Windchill Dew Point Humidity Pressure Visibility Wind Dir Wind Speed Gust Speed Precip Events Conditions
12:14 AM 7.7 °F 1.0 °F 3.2 °F 82% 30.20 in 10.0 mi SW 3.5 mph - N/A   Scattered Clouds
12:35 AM 8.1 °F - 3.7 °F 83% 30.19 in 10.0 mi Calm Calm - N/A   Overcast
12:54 AM 8.8 °F -1.1 °F 4.5 °F 83% 30.19 in 10.0 mi SSW 5.8 mph - N/A   Overcast
1:15 AM 10.2 °F -0.6 °F 5.7 °F 82% 30.18 in 7.0 mi SSW 6.9 mph - N/A   Overcast
1:35 AM 11.3 °F 0.7 °F 6.8 °F 82% 30.16 in 7.0 mi SSW 6.9 mph - N/A Snow Light Snow
1:54 AM 12.2 °F -0.2 °F 7.7 °F 82% 30.16 in 4.0 mi SSW 9.2 mph - N/A Snow Light Snow
2:15 AM 12.7 °F 0.4 °F 8.6 °F 84% 30.16 in 3.0 mi SSW 9.2 mph - N/A Snow Light Snow
2:35 AM 13.1 °F 1.8 °F 9.3 °F 85% 30.15 in 2.0 mi SSW 8.1 mph - N/A Snow Light Snow
2:54 AM 13.6 °F 0.7 °F 10.0 °F 86% 30.15 in 2.0 mi SSW 10.4 mph - N/A Snow Light Snow
3:15 AM 14.0 °F 2.0 °F 10.6 °F 86% 30.14 in 2.0 mi SSW 9.2 mph - N/A Snow Light Snow
3:35 AM 14.5 °F 2.7 °F 11.1 °F 86% 30.12 in 3.0 mi SSW 9.2 mph - N/A Snow Light Snow
3:54 AM 14.9 °F 3.1 °F 11.3 °F 86% 30.11 in 2.5 mi SSW 9.2 mph - N/A Snow Light Snow
4:15 AM 15.3 °F 2.8 °F 12.0 °F 87% 30.10 in 2.5 mi SSW 10.4 mph - N/A Snow Light Snow
4:35 AM 15.4 °F 3.0 °F 12.2 °F 87% 30.08 in 2.0 mi South 10.4 mph - N/A Snow Light Snow
4:54 AM 15.8 °F 4.2 °F 12.7 °F 88% 30.07 in 1.8 mi SSW 9.2 mph - N/A Snow Light Snow
5:15 AM 15.8 °F 3.4 °F 12.9 °F 88% 30.06 in 1.8 mi SSW 10.4 mph - N/A Snow Light Snow
5:34 AM 16.2 °F 3.9 °F 13.1 °F 88% 30.05 in 2.0 mi SSW 10.4 mph - N/A Snow Light Snow
5:55 AM 16.5 °F 6.0 °F 13.5 °F 88% 30.05 in 3.0 mi SSW 8.1 mph - N/A Snow Light Snow
6:15 AM 16.7 °F 4.5 °F 13.6 °F 88% 30.04 in 1.8 mi SSW 10.4 mph - N/A Snow Light Snow
6:34 AM 16.7 °F 5.3 °F 13.8 °F 88% 30.04 in 1.5 mi SSW 9.2 mph - N/A Snow Light Snow
6:55 AM 17.1 °F 5.0 °F 14.0 °F 88% 30.03 in 1.5 mi SSW 10.4 mph - N/A Snow Light Snow
7:15 AM 17.2 °F 4.5 °F 14.0 °F 87% 30.02 in 2.5 mi SSW 11.5 mph - N/A Snow Light Snow
7:34 AM 17.4 °F 5.4 °F 14.4 °F 88% 30.02 in 4.0 mi SSW 10.4 mph - N/A Snow Light Snow
7:55 AM 17.6 °F 6.4 °F 14.5 °F 88% 30.02 in 3.0 mi SSW 9.2 mph - N/A Snow Light Snow
8:15 AM 17.6 °F 5.7 °F 14.7 °F 88% 30.01 in 4.0 mi SSW 10.4 mph 16.1 mph N/A Snow Light Snow
8:34 AM 18.0 °F 5.4 °F 14.9 °F 88% 30.01 in 4.0 mi SSW 11.5 mph - N/A Snow Light Snow
8:55 AM 18.3 °F 5.9 °F 14.9 °F 86% 30.01 in 1.8 mi SSW 11.5 mph - N/A Snow Light Snow
9:15 AM 18.5 °F 6.8 °F 15.4 °F 88% 30.00 in 2.0 mi SSW 10.4 mph - N/A Snow Light Snow
9:34 AM 18.9 °F 5.3 °F 15.6 °F 87% 30.00 in 3.0 mi SSW 13.8 mph - N/A Snow Light Snow
9:55 AM 19.4 °F 7.2 °F 16.2 °F 87% 29.98 in 2.0 mi SW 11.5 mph 17.3 mph N/A Snow Light Snow
10:14 AM 19.9 °F 8.6 °F 16.5 °F 87% 29.98 in 2.0 mi SW 10.4 mph - N/A Snow Light Snow
10:35 AM 20.7 °F 10.2 °F 16.7 °F 85% 29.97 in 1.8 mi SW 9.2 mph - N/A Snow Light Snow
10:55 AM 21.2 °F 8.9 °F 17.1 °F 84% 29.96 in 2.5 mi SW 12.7 mph - N/A Snow Light Snow
11:14 AM 21.6 °F 9.3 °F 17.4 °F 84% 29.96 in 2.5 mi SW 12.7 mph - N/A Snow Light Snow
11:35 AM 22.1 °F 11.3 °F 17.6 °F 83% 29.96 in 5.0 mi WSW 10.4 mph - N/A Snow Light Snow
11:55 AM 22.6 °F 12.6 °F 17.6 °F 81% 29.96 in 5.0 mi WSW 9.2 mph - N/A Snow Light Snow
12:14 PM 22.8 °F 12.9 °F 18.0 °F 82% 29.95 in 7.0 mi WSW 9.2 mph - N/A Snow Light Snow
12:35 PM 23.5 °F 16.4 °F 18.5 °F 81% 29.94 in 2.5 mi WSW 5.8 mph - N/A Snow Light Snow
12:55 PM 23.9 °F 12.9 °F 18.9 °F 81% 29.94 in 1.5 mi West 11.5 mph - N/A Snow Light Snow
1:14 PM 23.7 °F 14.7 °F 19.2 °F 83% 29.94 in 2.0 mi WNW 8.1 mph - N/A Snow Light Snow
1:35 PM 20.8 °F 10.4 °F 15.6 °F 80% 29.94 in 5.0 mi North 9.2 mph - N/A Snow Light Snow
1:55 PM 20.7 °F 11.0 °F 14.9 °F 78% 29.94 in 5.0 mi North 8.1 mph - N/A Snow Light Snow
2:14 PM 20.8 °F 11.2 °F 13.5 °F 73% 29.95 in 4.0 mi North 8.1 mph - N/A Snow Light Snow
2:35 PM 20.8 °F 11.2 °F 12.4 °F 70% 29.95 in 7.0 mi NNW 8.1 mph - N/A Snow Light Snow
2:54 PM 20.3 °F 9.8 °F 12.0 °F 70% 29.95 in 7.0 mi North 9.2 mph - N/A Snow Light Snow
3:15 PM 20.3 °F 11.5 °F 11.5 °F 69% 29.95 in 10.0 mi North 6.9 mph - N/A Snow Light Snow
3:35 PM 20.1 °F 11.3 °F 10.8 °F 67% 29.96 in 10.0 mi NNE 6.9 mph - N/A   Overcast
3:54 PM 19.9 °F 10.1 °F 10.2 °F 66% 29.96 in 10.0 mi North 8.1 mph - N/A   Overcast
4:15 PM 19.8 °F 11.9 °F 10.0 °F 66% 29.97 in 10.0 mi North 5.8 mph - N/A   Overcast
4:35 PM 19.4 °F 10.4 °F 9.0 °F 64% 29.98 in 10.0 mi NNW 6.9 mph - N/A   Overcast
4:54 PM 19.2 °F 10.2 °F 9.5 °F 66% 29.98 in 10.0 mi North 6.9 mph - N/A   Overcast
5:15 PM 18.5 °F 11.7 °F 9.0 °F 66% 29.99 in 10.0 mi NNW 4.6 mph - N/A   Overcast
5:35 PM 18.1 °F 11.3 °F 9.5 °F 69% 30.00 in 10.0 mi North 4.6 mph - N/A   Overcast
5:54 PM 17.6 °F 10.7 °F 9.5 °F 71% 30.00 in 10.0 mi NNW 4.6 mph - N/A   Overcast
6:15 PM 17.6 °F 12.3 °F 9.5 °F 71% 30.00 in 10.0 mi NNW 3.5 mph - N/A   Overcast
6:35 PM 18.1 °F - 9.7 °F 70% 30.00 in 10.0 mi Calm Calm - N/A   Overcast
6:54 PM 18.0 °F - 10.0 °F 71% 30.01 in 10.0 mi Calm Calm - N/A   Overcast
7:35 PM 17.2 °F 11.9 °F 10.4 °F 75% 30.02 in 10.0 mi NNW 3.5 mph - N/A   Overcast
7:55 PM 16.9 °F 11.5 °F 10.2 °F 75% 30.02 in 10.0 mi NNW 3.5 mph - N/A   Overcast
8:15 PM 16.5 °F 11.0 °F 10.0 °F 76% 30.02 in 10.0 mi NNW 3.5 mph - N/A   Overcast
8:34 PM 16.0 °F 10.4 °F 9.5 °F 76% 30.02 in 10.0 mi NNW 3.5 mph - N/A   Overcast
8:55 PM 15.6 °F 8.3 °F 9.5 °F 77% 30.03 in 10.0 mi NNW 4.6 mph - N/A   Overcast
9:15 PM 14.9 °F - 9.1 °F 78% 30.03 in 10.0 mi Calm Calm - N/A   Overcast
9:34 PM 14.5 °F - 8.8 °F 78% 30.03 in 10.0 mi Calm Calm - N/A   Overcast
9:55 PM 14.7 °F - 9.0 °F 78% 30.03 in 10.0 mi Calm Calm - N/A   Overcast
10:15 PM 14.0 °F - 8.4 °F 78% 30.03 in 10.0 mi Calm Calm - N/A   Overcast
10:34 PM 13.5 °F - 8.1 °F 79% 30.03 in 10.0 mi Calm Calm - N/A   Mostly Cloudy
10:55 PM 12.0 °F - 7.2 °F 81% 30.02 in 10.0 mi Calm Calm - N/A   Mostly Cloudy
11:15 PM 10.4 °F - 6.6 °F 85% 30.01 in 10.0 mi Calm Calm - N/A   Mostly Cloudy
11:34 PM 9.3 °F - 5.9 °F 86% 30.00 in 10.0 mi Calm Calm - N/A   Mostly Cloudy
11:55 PM 8.2 °F - 5.4 °F 88% 29.99 in 10.0 mi Calm Calm - N/A   Mostly Cloudy